User: anonymous   Login
Location: Vancouver
(49.2500°N, 123.1330°W)
Time: 08:01:18
(UTC-07:00)
Language:

Cosmos 676 Rocket - Orbit

View from above orbital plane
View from above orbital plane
View from above satellite
View from above satellite

Ground track
Ground track

The orbit data is extracted from the following two-line orbital elements,

1 07434U 74071B   16204.28693976  .00000053  00000-0  26782-4 0  9997
2 07434  74.0475  99.8516 0019714  92.2959 268.0451 14.36577135189335
Epoch (UTC): 22 July 2016 06:53:11
Eccentricity: 0.0019714
inclination: 74.0475°
perigee height: 756 km
apogee height: 784 km
right ascension of ascending node: 99.8516°
argument of perigee: 92.2959°
revolutions per day: 14.36577135
mean anomaly at epoch: 268.0451°
orbit number at epoch: 18933

The dashed part of the orbit path shows where the satellite is in the earth's shadow,  

DLR